EHI
0 0 0 0 0 0 0 0 0 0 0 0 0 0 0 0 0 0 0 0 0 0 0 0 0 0 0 0 0 0 0 0 0 0 0 0 0 0 0 0 0 0 0
0 0 0 0 0 0 0 0 0 0 0 0 0 0 0 0 0 0 0 0 0 0 0 0 0 0 0 0 0 0 0 0 0 0 0 0 0 0 0 0 0 0 0
0 0 0 0 0 0 0 0 0 0 0 0 0 0 0 0 0 0 0 0 0 0 0 0 0 0 0 0 0 0 0 0 0 0 0 0 0 0 0 0 0 0 0
0 0 0 0 0 0 0 0 0 0 0 0 0 0 0 0 0 0 0 0 0 0 0 0 0 0 0 0 0 0 0 0 0 0 0 0 0 0 0 0 0 0 0
0 0 0 0 0 0 0 0 0 0 0 0 0 0 0 0 0 0 0 0 0 0 0 0 0 0 0 0 0 0 0 0 0 0 0 0 0 0 0 0 0 0 0
0 0 0 0 0 0 0 0 0 0 0 0 0 0 0 0 0 0 0 0 0 0 0 0 0 0 0 0 0 0 0 0 0 0 0 0 0 0 0 0 0 0 0
0 0 0 0 0 0 0 0 0 0 0 0 0 0 0 0 0 0 0 0 0 0 0 0 0 0 0 0 0 0 0 0 0 0 0 0 0 0 0 0 0 0 0
0 0 0 0 0 0 0 0 0 0 0 0 0 0 0 0 0 0 0 0 0 0 0 0 0 0 0 0 0 0 0 0 0 0 0 0 0 0 0 0 0 0 0
0 0 0 0 0 0 0 0 0 0 0 0 0 0 0 0 0 0 0 0 0 0 0 0 0 0 0 0 0 0 0 0 0 0 0 0 0 0 0 0 0 0 0
0 0 0 0 0 0 0 0 0 0 0 0 0 0 0 0 0 0 0 0 0 0 0 0 0 0 0 0 0 0 0 0 0 0 0 0 0 0 0 0 0 0 0
0 0 0 0 0 0 0 0 0 0 0 0 0 0 0 0 0 0 0 0 0 0 0 0 0 0 0 0 0 0 0 0 0 0 0 0 0 0 0 0 0 0 0
0 0 0 0 0 0 0 0 0 0 0 0 0 0 0 0 0 0 0 0 0 0 0 0 0 0 0 0 0 0 0 0 0 0 0 0 0 0 0 0 0 0 0
0 0 0 0 0 0 0 0 0 0 0 0 0 0 0 0 0 0 0 0 0 0 0 0 0 0 0 0 0 0 0 0 0 0 0 0 0 0 0 0 0 0 0
0 0 0 0 0 0 0 0 0 0 0 0 0 0 0 0 0 0 0 0 0 0 0 0 0 0 0 0 0 0 0 0 0 0 0 0 0 0 0 0 0 0 0
0 0 0 0 0 0 0 0 0 0 0 0 0 0 0 0 0 0 0 0 0 0 0 0 0 0 0 0 0 0 0 0 0 0 0 0 0 0 0 0 0 0 0
0 0 0 0 0 0 0 0 0 0 0 0 0 0 0 0 0 0 0 0 0 0 0 0 0 0 0 0 0 0 0 0 0 0 0 0 0 0 0 0 0 0 0
0 0 0 0 0 0 0 0 0 0 0 0 0 0 0 0 0 0 0 0 0 0 0 0 0 0 0 0 0 0 0 0 0 0 0 0 0 0 0 0 0 0 0
0 0 0 0 0 0 0 0 0 0 0 0 0 0 0 0 0 0 0 0 0 0 0 0 0 0 0 0 0 0 0 0 0 0 0 0 0 0 0 0 0 0 0
0 0 0 0 0 0 0 0 0 0 0 0 0 0 0 0 0 0 0 0 0 0 0 0 0 0 0 0 0 0 0 0 0 0 0 0 0 0 0 0 0 0 0
0 0 0 0 0 0 0 0 0 0 0 0 0 0 0 0 0 0 0 0 0 0 0 0 0 0 0 0 0 0 0 0 0 0 0 0 0 0 0 0 0 0 0
0 0 0 0 0 0 0 0 0 0 0 0 0 0 0 0 0 0 0 0 0 0 0 0 0 0 0 0 0 0 0 0 0 0 0 0 0 0 0 0 0 0 0
0 0 0 0 0 0 0 0 0 0 0 0 0 0 0 0 0 0 0 0 0 0 0 0 0 0 0 0 0 0 0 0 0 0 0 0 0 0 0 0 0 0 0
0 0 0 0 0 0 0 0 0 0 0 0 0 0 0 0 0 0 0 0 0 0 0 0 0 0 0 0 0 0 0 0 0 0 0 0 0 0 0 0 0 0 0
0 0 0 0 0 0 0 0 0 0 0 0 0 0 0 0 0 0 0 0 0 0 0 0 0 0 0 0 0 0 0 0 0 0 0 0 0 0 0 0 0 0 0
0 0 0 0 0 0 0 0 0 0 0 0 0 0 0 0 0 0 0 0 0 0 0 0 0 0 0 0 0 0 0 0 0 0 0 0 0 0 0 0 0 0 0
0 0 0 0 0 0 0 0 0 0 0 0 0 0 0 0 0 0 0 0 0 0 0 0 0 0 0 0 0 0 0 0 0 0 0 0 0 0 0 0 0 0 0
Wind_Speed
10 12 19 17 15 13 12 11 11 10 10 11 11 12 12 12 13 13 14 14 15 15 16 16 17 18 18 19 19 19 19 19 19 19 19 21 22 22 22 22 20 14 23
13 15 19 18 16 15 13 12 11 10 10 10 10 11 11 11 12 12 13 13 14 14 15 15 16 16 17 17 18 18 18 17 17 18 18 17 19 21 21 21 21 15 22
15 15 16 19 17 16 14 13 12 11 11 10 10 10 10 10 11 11 12 12 12 13 13 14 15 15 16 16 17 17 16 16 16 17 16 9 11 20 20 20 20 21 21
15 15 14 19 18 16 15 14 13 12 11 10 10 10 9 10 10 10 10 11 11 12 12 13 13 14 14 15 16 16 15 15 16 15 8 7 8 17 19 19 20 20 20
13 14 15 20 18 17 16 14 13 12 11 10 10 9 9 9 9 9 9 10 10 11 11 11 12 13 13 14 14 15 14 13 15 10 6 6 7 15 18 19 19 19 19
12 13 16 21 19 18 16 15 14 13 12 11 10 9 9 8 8 8 8 9 9 9 9 10 11 11 12 13 13 14 13 12 10 5 5 6 6 15 18 18 18 19 19
11 13 15 20 19 18 17 16 14 13 12 11 10 9 8 8 8 7 7 7 7 8 8 9 9 10 11 11 12 13 12 11 6 4 5 5 8 17 17 18 18 18 19
11 13 15 20 20 19 17 16 15 14 13 12 11 10 9 8 7 7 6 6 6 6 6 7 8 8 9 10 11 11 11 10 8 6 5 5 13 16 17 17 18 18 19
10 12 12 11 14 18 18 17 16 15 14 13 11 10 9 8 7 6 6 5 4 4 5 5 6 6 7 8 10 10 9 10 5 3 6 5 13 16 16 16 17 18 18
9 9 13 11 10 9 10 17 17 16 15 14 12 11 10 8 7 6 5 5 4 3 3 3 4 4 5 6 8 8 8 7 4 4 3 6 14 14 15 15 16 16 17
10 9 11 13 11 10 9 14 14 15 15 14 11 12 10 5 5 5 5 6 4 3 1 0 1 2 3 3 4 6 5 2 3 2 2 8 12 13 14 14 15 16 16
13 12 9 12 12 11 11 9 7 7 7 7 6 7 5 5 4 6 8 7 6 5 4 3 3 3 2 1 2 3 2 3 2 2 2 9 11 12 13 13 14 14 15
13 12 11 10 11 11 7 8 6 5 6 7 8 9 6 5 4 4 3 4 4 6 4 5 4 2 1 0 1 1 1 2 1 1 2 8 10 11 12 12 13 14 14
12 14 12 11 9 10 8 7 7 6 6 6 7 10 7 4 4 4 4 5 5 4 4 3 3 3 2 2 2 2 2 1 1 1 2 7 9 11 12 12 13 13 14
15 15 13 12 11 9 8 7 7 6 7 7 6 7 8 5 5 5 4 4 5 4 4 4 4 4 3 3 3 3 3 3 3 2 2 8 10 11 12 13 13 14 14
16 16 15 14 12 10 9 7 6 6 6 7 6 7 8 6 6 6 5 5 5 4 4 4 5 4 3 3 3 3 4 4 4 3 3 5 10 12 13 13 13 14 15
15 15 16 15 13 12 11 9 7 6 7 7 7 9 9 8 7 6 6 5 5 5 5 4 4 3 3 3 4 5 4 4 4 4 4 3 4 10 14 14 14 15 15
12 14 16 15 14 13 11 10 7 7 7 7 7 8 11 10 9 7 6 6 6 5 5 4 4 4 4 4 4 4 4 4 5 6 5 5 4 5 9 14 15 16 16
14 14 14 15 15 13 11 9 8 7 8 7 7 8 10 12 11 8 7 6 7 6 5 6 5 5 4 5 5 4 4 4 5 7 7 7 6 6 5 10 16 17 17
14 13 13 14 13 12 9 8 7 8 7 7 8 9 11 11 12 10 7 8 8 6 7 6 6 6 5 4 5 5 5 5 5 6 8 7 6 7 7 7 7 10 18
12 12 14 14 14 12 10 11 11 11 8 7 8 11 13 12 13 12 9 9 9 9 9 9 7 7 6 4 2 4 5 8 9 8 7 6 7 7 7 7 6 5 7
11 11 12 13 14 13 11 9 7 7 6 7 7 10 13 14 14 14 13 11 11 9 11 11 9 7 6 7 5 3 4 5 8 10 7 7 7 6 7 9 7 7 6
9 11 10 12 12 12 10 6 5 5 5 8 10 10 12 14 15 14 15 13 12 12 12 14 12 12 9 8 7 6 5 7 3 3 7 7 7 6 6 6 8 9 9
7 8 9 10 10 11 11 10 11 11 14 14 9 8 10 14 15 15 15 15 14 12 13 14 14 11 10 8 7 8 6 5 4 3 3 5 8 8 8 9 9 9 9
5 6 7 8 9 10 12 12 12 13 13 7 8 10 12 12 15 16 16 15 15 13 14 13 14 14 12 11 8 6 7 6 5 5 5 5 5 6 7 8 7 7 8
3 4 5 7 8 9 11 12 14 16 13 10 11 11 11 10 12 16 16 16 15 14 14 14 13 15 14 13 11 9 8 7 8 8 9 6 6 5 7 6 7 7 7
Wind_Direction
140 148 152 147 143 139 132 125 117 109 104 99 93 88 83 79 75 71 68 65 62 59 57 56 55 53 52 51 50 48 46 45 46 46 43 41 42 43 42 40 40 31 34
140 148 154 151 148 144 139 132 126 120 113 106 100 95 89 84 80 75 71 67 64 60 57 55 55 54 52 51 50 48 47 46 47 47 43 30 33 40 41 38 37 34 34
143 148 156 154 152 148 145 140 135 129 122 115 108 102 95 89 84 78 74 70 66 62 58 55 54 53 52 51 49 48 46 46 48 49 39 14 13 37 39 38 36 34 32
146 148 157 157 155 153 150 146 142 136 130 123 117 109 103 96 90 84 78 73 68 64 60 56 54 52 51 50 48 45 45 47 51 50 32 12 2 31 37 35 34 33 31
148 151 158 159 159 157 155 152 148 144 138 132 126 118 111 103 96 88 82 75 70 65 60 56 52 50 49 48 46 43 42 46 53 46 29 13 351 26 34 33 31 30 29
150 149 156 162 162 162 160 158 155 150 146 140 135 128 121 113 105 96 87 79 73 67 61 56 51 48 46 44 42 40 38 45 57 43 37 16 347 22 30 29 27 26 26
154 147 158 166 167 166 165 163 161 157 153 149 145 139 132 124 116 107 97 87 77 70 62 56 49 44 41 39 37 35 33 36 65 50 45 12 1 21 25 25 23 22 21
155 148 159 171 171 171 170 169 166 164 161 157 154 149 144 137 131 122 111 99 85 74 64 55 47 40 35 34 33 30 28 32 44 37 50 12 12 18 20 20 18 18 17
158 152 157 172 173 175 175 174 172 171 168 166 163 159 155 150 146 137 128 118 102 85 69 55 46 35 29 29 27 24 22 29 41 37 39 9 11 13 15 15 13 12 12
164 161 160 171 172 172 174 179 178 176 175 173 170 166 165 164 159 158 151 143 130 110 84 57 38 26 18 21 21 16 17 21 34 50 43 3 9 8 9 9 7 6 5
176 176 168 173 174 172 173 184 180 180 180 177 174 175 172 172 171 175 170 164 164 164 161 100 359 345 335 344 6 5 13 2 31 50 59 4 3 1 2 2 0 359 358
187 183 181 177 174 173 179 173 169 174 173 168 162 168 177 198 180 169 169 179 190 201 214 221 247 273 296 335 329 348 1 1 16 19 15 358 353 351 352 352 351 350 349
188 184 186 184 174 174 171 164 172 173 167 178 175 171 186 189 154 152 156 182 199 212 223 220 239 232 243 174 296 310 344 352 336 351 347 338 338 338 339 339 340 339 338
189 191 188 185 177 175 170 169 172 173 172 182 184 174 178 177 172 176 182 180 190 196 200 204 215 213 217 229 239 280 298 286 289 301 292 314 320 322 323 325 326 327 328
194 191 191 187 183 177 173 175 178 177 174 177 178 179 175 175 183 184 191 188 192 190 184 204 218 215 212 227 233 246 264 273 273 275 284 293 298 303 306 308 311 314 316
196 192 189 190 186 180 182 181 182 179 173 176 177 185 183 179 184 186 190 192 194 192 190 195 211 211 213 216 232 244 249 257 257 258 252 274 284 289 291 293 297 301 304
197 190 189 191 188 185 186 186 186 183 178 183 181 187 190 188 187 186 190 191 194 191 191 196 218 208 219 225 230 238 238 239 246 252 254 243 258 274 280 282 284 289 293
194 190 189 190 191 190 189 189 190 189 188 189 185 187 193 195 191 188 191 196 190 186 185 189 203 200 215 219 228 235 232 228 235 242 244 239 231 244 264 272 278 281 285
194 187 185 186 190 191 189 188 194 195 196 192 189 190 194 196 195 192 194 196 188 186 188 199 198 196 207 216 222 230 231 230 233 241 238 234 229 224 222 256 267 274 278
188 184 182 184 187 187 186 189 196 207 204 197 195 196 194 197 197 196 197 197 190 188 193 196 199 198 202 206 230 241 235 233 234 232 233 233 226 224 222 229 245 264 269
178 181 182 185 187 186 191 196 200 207 206 204 202 200 199 198 198 198 201 200 197 197 197 195 191 199 204 190 210 263 257 239 235 231 222 220 223 224 220 220 220 224 251
177 183 185 188 188 193 198 199 201 200 206 211 210 209 204 202 200 203 204 202 201 200 199 198 193 193 200 187 177 195 266 266 236 227 212 212 218 219 221 226 223 224 227
179 186 192 192 192 194 191 184 192 199 210 215 214 214 210 206 205 205 206 205 204 202 206 203 196 194 201 199 187 174 194 226 260 244 217 215 214 216 219 221 225 227 229
191 186 190 192 193 191 188 195 198 206 217 220 216 215 212 212 212 210 208 208 208 207 208 207 203 199 191 198 202 207 202 179 184 257 266 228 218 220 220 228 231 226 226
187 185 190 195 200 194 196 202 208 221 228 227 219 221 218 217 216 215 212 211 213 212 211 208 206 203 203 202 197 187 211 222 205 197 239 238 234 228 223 223 225 224 224
178 183 190 201 212 205 204 208 214 225 228 227 226 227 223 220 218 217 215 215 216 216 214 212 210 208 208 208 205 197 184 188 201 205 220 226 230 232 229 227 225 223 225